When you browse on this site, cookies collect data to enhance your experience and personalize the content and advertising you see.
Visit our Privacy Policy to learn more. By continuing to use the site, you agree to this use of cookies and data.

Hourly Weather Novoe Rusanovo

Today, 9 July, Thursday

Time Temperature Precipitation Wind Pressure Humidity
00:00 +14°C° 0.7 mm 5 mps 740 mmHg 96%
01:00 +13°C° 0.7 mm 5 mps 740 mmHg 96%
02:00 +13°C° 0 mm 4 mps 741 mmHg 95%
03:00 +12°C° 0.3 mm 4 mps 741 mmHg 95%
04:00 +12°C° 0.3 mm 5 mps 741 mmHg 95%
05:00 +12°C° 0.3 mm 5 mps 742 mmHg 94%
06:00 +13°C° 0 mm 5 mps 742 mmHg 90%
07:00 +15°C° 0 mm 4 mps 742 mmHg 86%
08:00 +17°C° 0 mm 4 mps 743 mmHg 82%
09:00 +18°C° 0 mm 4 mps 743 mmHg 78%
10:00 +19°C° 0 mm 4 mps 743 mmHg 73%
11:00 +20°C° 0 mm 4 mps 744 mmHg 69%
12:00 +21°C° 0 mm 4 mps 744 mmHg 67%
13:00 +21°C° 0 mm 3 mps 744 mmHg 64%
14:00 +21°C° 0 mm 3 mps 744 mmHg 62%
15:00 +21°C° 0.4 mm 3 mps 744 mmHg 68%
16:00 +20°C° 0.4 mm 3 mps 744 mmHg 73%
17:00 +19°C° 0.4 mm 3 mps 744 mmHg 79%
18:00 +18°C° 0 mm 3 mps 745 mmHg 83%
19:00 +16°C° 0 mm 3 mps 745 mmHg 87%
20:00 +15°C° 0 mm 2 mps 745 mmHg 91%
21:00 +15°C° 0 mm 2 mps 745 mmHg 92%
22:00 +13°C° 0 mm 3 mps 746 mmHg 93%
23:00 +12°C° 0 mm 3 mps 746 mmHg 94%

Tomorrow, 10 July, Friday

Time Temperature Precipitation Wind Pressure Humidity
00:00 +12°C° 0 mm 3 mps 747 mmHg 94%
01:00 +12°C° 0 mm 2 mps 747 mmHg 94%
02:00 +12°C° 0 mm 2 mps 747 mmHg 94%
03:00 +12°C° 0 mm 2 mps 747 mmHg 93%
04:00 +12°C° 0 mm 2 mps 748 mmHg 91%
05:00 +12°C° 0 mm 2 mps 748 mmHg 90%
06:00 +14°C° 0 mm 2 mps 748 mmHg 84%
07:00 +16°C° 0 mm 2 mps 749 mmHg 78%
08:00 +17°C° 0 mm 2 mps 749 mmHg 73%
09:00 +18°C° 0 mm 2 mps 749 mmHg 69%
10:00 +19°C° 0 mm 2 mps 749 mmHg 66%
11:00 +20°C° 0 mm 3 mps 749 mmHg 62%
12:00 +21°C° 0 mm 3 mps 749 mmHg 61%
13:00 +21°C° 0 mm 3 mps 749 mmHg 60%
14:00 +22°C° 0 mm 3 mps 749 mmHg 59%
15:00 +22°C° 0 mm 3 mps 749 mmHg 63%
16:00 +21°C° 0 mm 3 mps 749 mmHg 67%
17:00 +21°C° 0 mm 3 mps 749 mmHg 71%
18:00 +20°C° 0 mm 3 mps 749 mmHg 75%
19:00 +18°C° 0 mm 3 mps 749 mmHg 79%
20:00 +17°C° 0 mm 3 mps 749 mmHg 83%
21:00 +16°C° 0 mm 3 mps 749 mmHg 84%
22:00 +16°C° 0 mm 3 mps 749 mmHg 86%
23:00 +14°C° 0 mm 3 mps 749 mmHg 87%

Day after tomorrow, 11 July, Saturday

Time Temperature Precipitation Wind Pressure Humidity
00:00 +14°C° 0 mm 3 mps 749 mmHg 88%
01:00 +14°C° 0 mm 3 mps 749 mmHg 89%
02:00 +13°C° 0 mm 3 mps 749 mmHg 90%
03:00 +14°C° 0 mm 3 mps 749 mmHg 89%
04:00 +14°C° 0 mm 3 mps 750 mmHg 87%
05:00 +14°C° 0 mm 3 mps 750 mmHg 85%
06:00 +17°C° 0 mm 4 mps 750 mmHg 82%
07:00 +19°C° 0 mm 4 mps 750 mmHg 79%
08:00 +20°C° 0 mm 5 mps 750 mmHg 76%
09:00 +22°C° 0 mm 5 mps 750 mmHg 74%
10:00 +23°C° 0 mm 5 mps 750 mmHg 73%
11:00 +25°C° 0 mm 5 mps 750 mmHg 71%
12:00 +26°C° 0 mm 5 mps 749 mmHg 71%
13:00 +26°C° 0 mm 5 mps 749 mmHg 71%
14:00 +26°C° 0 mm 5 mps 749 mmHg 70%
15:00 +26°C° 0 mm 5 mps 749 mmHg 73%
16:00 +26°C° 0 mm 4 mps 748 mmHg 75%
17:00 +26°C° 0 mm 4 mps 748 mmHg 78%
18:00 +23°C° 0 mm 4 mps 748 mmHg 82%
19:00 +22°C° 0 mm 3 mps 748 mmHg 86%
20:00 +21°C° 0 mm 3 mps 748 mmHg 91%
21:00 +20°C° 0 mm 3 mps 748 mmHg 91%
22:00 +19°C° 0 mm 3 mps 748 mmHg 91%
23:00 +19°C° 0 mm 3 mps 748 mmHg 91%

12 July, Sunday

Time Temperature Precipitation Wind Pressure Humidity
00:00 +18°C° 0 mm 3 mps 748 mmHg 91%
01:00 +18°C° 0 mm 3 mps 748 mmHg 91%
02:00 +17°C° 0 mm 3 mps 748 mmHg 92%
03:00 +18°C° 0 mm 2 mps 748 mmHg 91%
04:00 +18°C° 0 mm 2 mps 748 mmHg 90%
05:00 +18°C° 0 mm 2 mps 747 mmHg 89%
06:00 +20°C° 0 mm 2 mps 747 mmHg 84%
07:00 +21°C° 0 mm 2 mps 747 mmHg 79%
08:00 +24°C° 0 mm 2 mps 747 mmHg 74%
09:00 +25°C° 0 mm 2 mps 747 mmHg 71%
10:00 +26°C° 0 mm 3 mps 747 mmHg 68%
11:00 +27°C° 0 mm 3 mps 747 mmHg 65%
12:00 +27°C° 0 mm 3 mps 747 mmHg 65%
13:00 +27°C° 0 mm 3 mps 746 mmHg 64%
14:00 +27°C° 0 mm 3 mps 746 mmHg 63%
15:00 +27°C° 0 mm 3 mps 746 mmHg 65%
16:00 +27°C° 0 mm 2 mps 745 mmHg 68%
17:00 +27°C° 0 mm 2 mps 745 mmHg 70%
18:00 +25°C° 0 mm 2 mps 745 mmHg 74%
19:00 +23°C° 0 mm 1 mps 745 mmHg 78%
20:00 +21°C° 0 mm 1 mps 745 mmHg 81%
21:00 +21°C° 0 mm 1 mps 745 mmHg 82%
22:00 +20°C° 0 mm 1 mps 744 mmHg 83%
23:00 +19°C° 0 mm 1 mps 744 mmHg 83%

13 July, Monday

Time Temperature Precipitation Wind Pressure Humidity
00:00 +19°C° 0 mm 1 mps 744 mmHg 84%
01:00 +18°C° 0 mm 1 mps 744 mmHg 84%
02:00 +18°C° 0 mm 1 mps 743 mmHg 85%
03:00 +18°C° 0 mm 1 mps 743 mmHg 84%
04:00 +18°C° 0 mm 1 mps 743 mmHg 84%
05:00 +19°C° 0 mm 1 mps 743 mmHg 83%
06:00 +20°C° 0 mm 1 mps 743 mmHg 79%
07:00 +22°C° 0 mm 1 mps 743 mmHg 75%
08:00 +23°C° 0 mm 1 mps 742 mmHg 72%
09:00 +24°C° 0 mm 2 mps 742 mmHg 69%
10:00 +26°C° 0 mm 2 mps 742 mmHg 66%
11:00 +27°C° 0 mm 2 mps 742 mmHg 63%
12:00 +27°C° 0.1 mm 3 mps 742 mmHg 64%
13:00 +27°C° 0.1 mm 3 mps 741 mmHg 66%
14:00 +28°C° 0.1 mm 3 mps 741 mmHg 67%
15:00 +26°C° 4.3 mm 3 mps 740 mmHg 76%
16:00 +24°C° 4.3 mm 2 mps 740 mmHg 85%
17:00 +21°C° 4.3 mm 2 mps 739 mmHg 94%
18:00 +21°C° 1 mm 3 mps 739 mmHg 94%
19:00 +21°C° 1 mm 3 mps 739 mmHg 94%
20:00 +20°C° 1 mm 3 mps 739 mmHg 94%
21:00 +20°C° 0.1 mm 3 mps 739 mmHg 94%
22:00 +19°C° 0.1 mm 3 mps 738 mmHg 95%
23:00 +19°C° 0.1 mm 3 mps 738 mmHg 95%

14 July, Tuesday

Time Temperature Precipitation Wind Pressure Humidity
00:00 +19°C° 0.9 mm 3 mps 738 mmHg 95%
01:00 +19°C° 0.9 mm 2 mps 738 mmHg 96%
02:00 +19°C° 0.9 mm 2 mps 737 mmHg 97%
03:00 +19°C° 0.6 mm 3 mps 737 mmHg 97%
04:00 +19°C° 0.6 mm 3 mps 737 mmHg 97%
05:00 +20°C° 0.6 mm 3 mps 736 mmHg 97%
06:00 +20°C° 0 mm 4 mps 736 mmHg 96%
07:00 +21°C° 0 mm 4 mps 736 mmHg 95%
08:00 +21°C° 0 mm 5 mps 736 mmHg 94%
09:00 +21°C° 0.2 mm 5 mps 736 mmHg 94%
10:00 +21°C° 0.2 mm 4 mps 736 mmHg 93%
11:00 +20°C° 0.2 mm 4 mps 736 mmHg 93%
12:00 +21°C° 0.6 mm 4 mps 736 mmHg 90%
13:00 +22°C° 0.6 mm 4 mps 736 mmHg 87%
14:00 +25°C° 0.6 mm 4 mps 735 mmHg 84%
15:00 +23°C° 0.6 mm 4 mps 735 mmHg 85%
16:00 +23°C° 0.6 mm 4 mps 735 mmHg 86%
17:00 +24°C° 0.6 mm 3 mps 735 mmHg 87%
18:00 +22°C° 0.3 mm 3 mps 735 mmHg 89%
19:00 +21°C° 0.3 mm 4 mps 735 mmHg 92%
20:00 +19°C° 0.3 mm 4 mps 735 mmHg 95%
21:00 +18°C° 0 mm 3 mps 736 mmHg 95%
22:00 +17°C° 0 mm 3 mps 736 mmHg 95%
23:00 +16°C° 0 mm 3 mps 736 mmHg 96%
Show more